| time (UTC) | temp F | wind direction | speed MPH | gust MPH | rain 1hr in | rain 24hr in | rain mn in | humidity % | barometer mb |
| 20260505081431 | 52 | 0 | 1.0 | 6.0 | 0.00 | 0.00 | 0.00 | 82 | 998.6 |
| 20260505080933 | 52 | 0 | 0.0 | 3.0 | 0.00 | 0.00 | 0.00 | 82 | 998.6 |
| 20260505080926 | 52 | 272 | 0.0 | 3.0 | 0.00 | 0.00 | 0.00 | 82 | 998.6 |
| 20260505080156 | 51 | 111 | 0.0 | 3.0 | 0.00 | 0.00 | 0.00 | 82 | 998.5 |
| 20260505075700 | 52 | 0 | 0.0 | 2.0 | 0.00 | 0.00 | 0.00 | 81 | 998.6 |
| 20260505074925 | 52 | 91 | 1.0 | 2.0 | 0.00 | 0.00 | 0.00 | 81 | 998.6 |
| 20260505074700 | 51 | 71 | 1.0 | 2.0 | 0.00 | 0.00 | 0.00 | 81 | 998.7 |
| 20260505073926 | 51 | 57 | 0.0 | 2.0 | 0.00 | 0.00 | 0.00 | 81 | 998.7 |
| 20260505073427 | 52 | 50 | 0.0 | 2.0 | 0.00 | 0.00 | 0.00 | 80 | 998.7 |
| 20260505072925 | 52 | 0 | 0.0 | 1.0 | 0.00 | 0.00 | 0.00 | 80 | 998.7 |
| 20260505072427 | 52 | 0 | 0.0 | 0.0 | 0.00 | 0.00 | 0.00 | 78 | 998.7 |
| 20260505071926 | 53 | 0 | 0.0 | 2.0 | 0.00 | 0.00 | 0.00 | 78 | 998.8 |
| 20260505071428 | 53 | 0 | 0.0 | 2.0 | 0.00 | 0.00 | 0.00 | 78 | 998.8 |
| 20260505070926 | 53 | 0 | 1.0 | 3.0 | 0.00 | 0.00 | 0.00 | 77 | 998.8 |
| 20260505070657 | 53 | 0 | 1.0 | 3.0 | 0.00 | 0.00 | 0.00 | 76 | 998.8 |
| 20260505065925 | 53 | 0 | 0.0 | 2.0 | 0.00 | 0.00 | 0.00 | 77 | 998.8 |
| 20260505065426 | 54 | 0 | 1.0 | 2.0 | 0.00 | 0.00 | 0.00 | 77 | 998.9 |
| 20260505064925 | 54 | 229 | 1.0 | 2.0 | 0.00 | 0.00 | 0.00 | 76 | 998.9 |
| 20260505064426 | 54 | 0 | 1.0 | 2.0 | 0.00 | 0.00 | 0.00 | 76 | 998.9 |
| 20260505063926 | 54 | 90 | 1.0 | 2.0 | 0.00 | 0.00 | 0.00 | 75 | 998.8 |
| 20260505063657 | 54 | 94 | 1.0 | 2.0 | 0.00 | 0.00 | 0.00 | 75 | 998.9 |
| 20260505062925 | 54 | 0 | 1.0 | 3.0 | 0.00 | 0.00 | 0.00 | 75 | 998.9 |
| 20260505062422 | 54 | 182 | 1.0 | 4.0 | 0.00 | 0.00 | 0.00 | 75 | 999.0 |
| 20260505061921 | 54 | 201 | 1.0 | 4.0 | 0.00 | 0.00 | 0.00 | 75 | 999.0 |
| 20260505061423 | 54 | 167 | 1.0 | 3.0 | 0.00 | 0.00 | 0.00 | 75 | 999.0 |
| 20260505061152 | 54 | 182 | 0.0 | 3.0 | 0.00 | 0.00 | 0.00 | 75 | 999.1 |
| 20260505060655 | 55 | 0 | 0.0 | 2.0 | 0.00 | 0.00 | 0.00 | 75 | 999.1 |
| 20260505055922 | 55 | 184 | 0.0 | 2.0 | 0.00 | 0.00 | 0.00 | 74 | 999.1 |
| 20260505055656 | 55 | 0 | 0.0 | 2.0 | 0.00 | 0.00 | 0.00 | 73 | 999.1 |
| 20260505054922 | 55 | 0 | 1.0 | 2.0 | 0.00 | 0.00 | 0.00 | 73 | 999.1 |
| 20260505054425 | 55 | 209 | 1.0 | 2.0 | 0.00 | 0.00 | 0.00 | 72 | 999.2 |
| 20260505053923 | 56 | 0 | 1.0 | 3.0 | 0.00 | 0.00 | 0.00 | 72 | 999.2 |
| 20260505053425 | 56 | 170 | 1.0 | 4.0 | 0.00 | 0.00 | 0.00 | 71 | 999.2 |
| 20260505052924 | 56 | 197 | 2.0 | 4.0 | 0.00 | 0.00 | 0.00 | 71 | 999.3 |
| 20260505052421 | 56 | 192 | 2.0 | 4.0 | 0.00 | 0.00 | 0.00 | 70 | 999.3 |
| 20260505051919 | 56 | 227 | 2.0 | 6.0 | 0.00 | 0.00 | 0.00 | 71 | 999.3 |
| 20260505051421 | 56 | 341 | 2.0 | 6.0 | 0.00 | 0.00 | 0.00 | 71 | 999.4 |
| 20260505051151 | 56 | 189 | 2.0 | 5.0 | 0.00 | 0.00 | 0.00 | 71 | 999.5 |
| 20260505050420 | 55 | 211 | 2.0 | 4.0 | 0.00 | 0.00 | 0.00 | 71 | 999.5 |
| 20260505041422 | 55 | 182 | 2.0 | 5.0 | 0.00 | 0.00 | 0.00 | 73 | 999.6 |
| 20260505040919 | 55 | 211 | 2.0 | 4.0 | 0.00 | 0.00 | 0.00 | 73 | 999.6 |
| 20260505040421 | 55 | 187 | 0.0 | 1.0 | 0.00 | 0.00 | 0.00 | 74 | 999.6 |
| 20260505035550 | 55 | 174 | 2.0 | 4.0 | 0.00 | 0.14 | 0.00 | 73 | 999.6 |
| 20260505035049 | 55 | 129 | 2.0 | 4.0 | 0.00 | 0.14 | 0.00 | 73 | 999.6 |
| 20260505034550 | 55 | 178 | 2.0 | 4.0 | 0.00 | 0.14 | 0.00 | 73 | 999.5 |
| 20260505034049 | 55 | 212 | 2.0 | 4.0 | 0.00 | 0.14 | 0.00 | 73 | 999.5 |
| 20260505033550 | 55 | 183 | 2.0 | 4.0 | 0.00 | 0.14 | 0.00 | 73 | 999.5 |
| 20260505033049 | 55 | 188 | 2.0 | 5.0 | 0.00 | 0.14 | 0.00 | 73 | 999.5 |
| 20260505032547 | 55 | 142 | 2.0 | 5.0 | 0.00 | 0.14 | 0.00 | 73 | 999.5 |
| 20260505032046 | 55 | 202 | 2.0 | 4.0 | 0.00 | 0.14 | 0.00 | 73 | 999.5 |
| 20260505031547 | 55 | 165 | 2.0 | 4.0 | 0.00 | 0.14 | 0.00 | 73 | 999.5 |
| 20260505031046 | 55 | 201 | 2.0 | 4.0 | 0.00 | 0.14 | 0.00 | 73 | 999.5 |
| 20260505030547 | 55 | 216 | 2.0 | 5.0 | 0.00 | 0.14 | 0.00 | 73 | 999.5 |
| 20260505030045 | 55 | 178 | 2.0 | 5.0 | 0.00 | 0.14 | 0.00 | 72 | 999.5 |
| 20260505025826 | 55 | 183 | 2.0 | 5.0 | 0.00 | 0.14 | 0.00 | 72 | 999.5 |
| 20260505025547 | 55 | 153 | 2.0 | 4.0 | 0.00 | 0.14 | 0.00 | 72 | 999.5 |
| 20260505024548 | 56 | 232 | 2.0 | 5.0 | 0.00 | 0.14 | 0.00 | 72 | 999.5 |
| 20260505024046 | 56 | 188 | 2.0 | 5.0 | 0.00 | 0.14 | 0.00 | 71 | 999.5 |
| 20260505023817 | 56 | 197 | 2.0 | 4.0 | 0.00 | 0.14 | 0.00 | 71 | 999.5 |
| 20260505023044 | 56 | 296 | 2.0 | 4.0 | 0.00 | 0.14 | 0.00 | 71 | 999.5 |
| 20260505022542 | 56 | 198 | 2.0 | 4.0 | 0.00 | 0.14 | 0.00 | 71 | 999.5 |
| 20260505022041 | 56 | 183 | 2.0 | 5.0 | 0.00 | 0.14 | 0.00 | 70 | 999.5 |
| 20260505021542 | 56 | 131 | 2.0 | 5.0 | 0.00 | 0.14 | 0.00 | 70 | 999.6 |
| 20260505021041 | 56 | 298 | 2.0 | 5.0 | 0.00 | 0.14 | 0.00 | 69 | 999.6 |
| 20260505020541 | 56 | 191 | 2.0 | 5.0 | 0.00 | 0.14 | 0.00 | 69 | 999.5 |
| 20260505020041 | 56 | 167 | 2.0 | 5.0 | 0.00 | 0.14 | 0.00 | 68 | 999.5 |
| 20260505015545 | 56 | 167 | 2.0 | 5.0 | 0.00 | 0.14 | 0.00 | 68 | 999.5 |
| 20260505015041 | 57 | 170 | 2.0 | 7.0 | 0.00 | 0.14 | 0.00 | 67 | 999.5 |
| 20260505014545 | 57 | 190 | 3.0 | 7.0 | 0.00 | 0.14 | 0.00 | 66 | 999.5 |
| 20260505014313 | 57 | 189 | 3.0 | 7.0 | 0.00 | 0.14 | 0.00 | 66 | 999.4 |
| 20260505013542 | 57 | 184 | 3.0 | 5.0 | 0.00 | 0.14 | 0.00 | 65 | 999.4 |
| 20260505013312 | 57 | 186 | 3.0 | 5.0 | 0.00 | 0.14 | 0.00 | 65 | 999.4 |
| 20260505012552 | 57 | 186 | 3.0 | 6.0 | 0.00 | 0.14 | 0.00 | 64 | 999.3 |
| 20260505012040 | 58 | 186 | 3.0 | 6.0 | 0.00 | 0.14 | 0.00 | 64 | 999.1 |
| 20260505011541 | 58 | 162 | 3.0 | 7.0 | 0.00 | 0.14 | 0.00 | 63 | 999.1 |
| 20260505011039 | 58 | 182 | 3.0 | 7.0 | 0.00 | 0.14 | 0.00 | 62 | 999.0 |
| 20260505010549 | 58 | 119 | 3.0 | 6.0 | 0.00 | 0.14 | 0.00 | 62 | 999.0 |
| 20260505010040 | 58 | 188 | 3.0 | 6.0 | 0.00 | 0.14 | 0.00 | 61 | 998.8 |
| 20260505005541 | 58 | 195 | 2.0 | 6.0 | 0.00 | 0.14 | 0.00 | 61 | 998.8 |
| 20260505005039 | 59 | 133 | 3.0 | 6.0 | 0.00 | 0.14 | 0.00 | 60 | 998.7 |
| 20260505004816 | 59 | 172 | 3.0 | 5.0 | 0.00 | 0.14 | 0.00 | 59 | 998.6 |
| 20260505004039 | 59 | 211 | 3.0 | 6.0 | 0.00 | 0.14 | 0.00 | 59 | 998.4 |
| 20260505003544 | 59 | 310 | 3.0 | 6.0 | 0.00 | 0.14 | 0.00 | 59 | 998.4 |
| 20260505003037 | 60 | 305 | 3.0 | 6.0 | 0.00 | 0.14 | 0.00 | 59 | 998.3 |
| 20260505002813 | 60 | 158 | 3.0 | 6.0 | 0.00 | 0.14 | 0.00 | 58 | 998.2 |
| 20260505002035 | 60 | 187 | 3.0 | 6.0 | 0.00 | 0.14 | 0.00 | 57 | 998.0 |
| 20260505001540 | 60 | 187 | 3.0 | 6.0 | 0.00 | 0.14 | 0.00 | 57 | 998.0 |
| 20260505001034 | 60 | 159 | 3.0 | 6.0 | 0.00 | 0.14 | 0.00 | 56 | 998.0 |
| 20260505000540 | 61 | 174 | 4.0 | 7.0 | 0.00 | 0.14 | 0.00 | 55 | 997.9 |
| 20260505000035 | 61 | 200 | 4.0 | 7.0 | 0.00 | 0.14 | 0.00 | 55 | 997.8 |
| 20260504235553 | 61 | 196 | 3.0 | 7.0 | 0.00 | 0.14 | 0.14 | 53 | 997.6 |
| 20260504235544 | 61 | 237 | 4.0 | 7.0 | 0.00 | 0.14 | 0.14 | 55 | 997.8 |
| 20260504234811 | 61 | 178 | 3.0 | 8.0 | 0.00 | 0.14 | 0.14 | 54 | 997.5 |
| 20260504234035 | 62 | 153 | 3.0 | 8.0 | 0.00 | 0.14 | 0.14 | 54 | 997.5 |
| 20260504233536 | 62 | 193 | 3.0 | 8.0 | 0.00 | 0.14 | 0.14 | 53 | 997.4 |
| 20260504233035 | 62 | 201 | 4.0 | 6.0 | 0.00 | 0.14 | 0.14 | 52 | 997.3 |
| 20260504232534 | 63 | 191 | 4.0 | 6.0 | 0.00 | 0.14 | 0.14 | 51 | 997.2 |
| 20260504232033 | 63 | 209 | 3.0 | 6.0 | 0.00 | 0.14 | 0.14 | 51 | 997.1 |
| 20260504231803 | 64 | 194 | 3.0 | 7.0 | 0.00 | 0.14 | 0.14 | 48 | 996.9 |
| 20260504231031 | 64 | 191 | 4.0 | 8.0 | 0.00 | 0.14 | 0.14 | 48 | 997.0 |
| 20260504230532 | 64 | 221 | 4.0 | 8.0 | 0.00 | 0.14 | 0.14 | 48 | 996.8 |
| 20260504225934 | 64 | 203 | 4.0 | 10.0 | 0.00 | 0.14 | 0.14 | 48 | 996.7 |
| 20260504225433 | 65 | 198 | 4.0 | 10.0 | 0.00 | 0.14 | 0.14 | 48 | 996.7 |
| 20260504224933 | 65 | 265 | 4.0 | 10.0 | 0.00 | 0.14 | 0.14 | 48 | 996.7 |
| 20260504224432 | 65 | 197 | 4.0 | 9.0 | 0.00 | 0.14 | 0.14 | 46 | 996.8 |
| 20260504224203 | 66 | 194 | 4.0 | 6.0 | 0.00 | 0.14 | 0.14 | 47 | 996.8 |
| 20260504223430 | 66 | 235 | 3.0 | 6.0 | 0.00 | 0.14 | 0.14 | 46 | 996.7 |
| 20260504222930 | 66 | 166 | 3.0 | 5.0 | 0.00 | 0.14 | 0.14 | 46 | 996.7 |
| 20260504222428 | 66 | 148 | 3.0 | 9.0 | 0.00 | 0.14 | 0.14 | 46 | 996.8 |
| 20260504221926 | 66 | 146 | 3.0 | 9.0 | 0.00 | 0.14 | 0.14 | 45 | 996.7 |
| 20260504221427 | 66 | 182 | 3.0 | 6.0 | 0.00 | 0.14 | 0.14 | 45 | 996.7 |
| 20260504220927 | 66 | 141 | 3.0 | 6.0 | 0.00 | 0.14 | 0.14 | 46 | 996.7 |
| 20260504220427 | 66 | 193 | 3.0 | 6.0 | 0.00 | 0.14 | 0.14 | 45 | 996.8 |
| 20260504215927 | 66 | 191 | 4.0 | 8.0 | 0.00 | 0.14 | 0.14 | 45 | 996.8 |
| 20260504215428 | 66 | 175 | 4.0 | 8.0 | 0.00 | 0.14 | 0.14 | 45 | 996.7 |
| 20260504214928 | 66 | 187 | 4.0 | 8.0 | 0.00 | 0.14 | 0.14 | 44 | 996.7 |
| 20260504214659 | 67 | 248 | 4.0 | 8.0 | 0.00 | 0.14 | 0.14 | 43 | 996.7 |
| 20260504214547 | 67 | 119 | 4.0 | 8.0 | 0.00 | 0.14 | 0.14 | 43 | 996.6 |
| 20260504213428 | 67 | 178 | 4.0 | 8.0 | 0.00 | 0.14 | 0.14 | 42 | 996.6 |
| 20260504212927 | 67 | 203 | 4.0 | 8.0 | 0.00 | 0.14 | 0.14 | 42 | 996.5 |
| 20260504212427 | 68 | 204 | 4.0 | 8.0 | 0.00 | 0.14 | 0.14 | 42 | 996.6 |
| 20260504211926 | 68 | 176 | 4.0 | 7.0 | 0.00 | 0.14 | 0.14 | 42 | 996.6 |
| 20260504211427 | 68 | 138 | 4.0 | 7.0 | 0.00 | 0.14 | 0.14 | 41 | 996.6 |
| 20260504210925 | 68 | 157 | 4.0 | 8.0 | 0.00 | 0.14 | 0.14 | 41 | 996.5 |
| 20260504210427 | 68 | 208 | 4.0 | 8.0 | 0.00 | 0.14 | 0.14 | 40 | 996.5 |
| 20260504205927 | 69 | 149 | 4.0 | 8.0 | 0.00 | 0.14 | 0.14 | 39 | 996.5 |
| 20260504205427 | 69 | 187 | 3.0 | 6.0 | 0.00 | 0.14 | 0.14 | 39 | 996.5 |
| 20260504204926 | 69 | 155 | 3.0 | 6.0 | 0.00 | 0.14 | 0.14 | 39 | 996.4 |
| 20260504204428 | 69 | 229 | 4.0 | 7.0 | 0.00 | 0.14 | 0.14 | 39 | 996.5 |
| 20260504203926 | 69 | 161 | 4.0 | 7.0 | 0.00 | 0.14 | 0.14 | 39 | 996.5 |
| 20260504203657 | 69 | 202 | 4.0 | 7.0 | 0.00 | 0.14 | 0.14 | 39 | 996.5 |
| 20260504202927 | 69 | 184 | 4.0 | 7.0 | 0.00 | 0.14 | 0.14 | 38 | 996.6 |
| 20260504202427 | 69 | 194 | 3.0 | 7.0 | 0.00 | 0.14 | 0.14 | 38 | 996.6 |
| 20260504201926 | 69 | 226 | 3.0 | 7.0 | 0.00 | 0.14 | 0.14 | 37 | 996.6 |
| 20260504201424 | 70 | 180 | 4.0 | 11.0 | 0.00 | 0.14 | 0.14 | 36 | 996.6 |
| 20260504200923 | 70 | 180 | 3.0 | 11.0 | 0.00 | 0.14 | 0.14 | 34 | 996.6 |
| 20260504200426 | 70 | 203 | 3.0 | 7.0 | 0.00 | 0.14 | 0.14 | 34 | 996.6 |
| 20260504195923 | 70 | 276 | 3.0 | 10.0 | 0.00 | 0.14 | 0.14 | 34 | 996.7 |
| 20260504195425 | 70 | 166 | 3.0 | 10.0 | 0.00 | 0.14 | 0.14 | 34 | 996.7 |
| 20260504195155 | 70 | 159 | 4.0 | 8.0 | 0.00 | 0.14 | 0.14 | 34 | 996.8 |
| 20260504194424 | 70 | 266 | 3.0 | 8.0 | 0.00 | 0.14 | 0.14 | 34 | 996.6 |
| 20260504193923 | 70 | 192 | 3.0 | 7.0 | 0.00 | 0.14 | 0.14 | 34 | 996.6 |
| 20260504193423 | 70 | 160 | 4.0 | 7.0 | 0.00 | 0.14 | 0.14 | 33 | 996.7 |
| 20260504192917 | 70 | 217 | 3.0 | 7.0 | 0.00 | 0.14 | 0.14 | 32 | 996.8 |
| 20260504192419 | 70 | 256 | 3.0 | 8.0 | 0.00 | 0.14 | 0.14 | 33 | 996.7 |
| 20260504191917 | 70 | 131 | 4.0 | 11.0 | 0.00 | 0.14 | 0.14 | 35 | 996.8 |
| 20260504191425 | 69 | 219 | 4.0 | 11.0 | 0.00 | 0.14 | 0.14 | 34 | 996.7 |
| 20260504190918 | 69 | 179 | 4.0 | 9.0 | 0.00 | 0.14 | 0.14 | 33 | 996.9 |
| 20260504190649 | 69 | 187 | 4.0 | 9.0 | 0.00 | 0.14 | 0.14 | 35 | 996.9 |
| 20260504185918 | 68 | 157 | 4.0 | 9.0 | 0.00 | 0.14 | 0.14 | 35 | 996.8 |
| 20260504185422 | 69 | 165 | 4.0 | 10.0 | 0.00 | 0.14 | 0.14 | 35 | 997.0 |
| 20260504184918 | 69 | 183 | 4.0 | 10.0 | 0.00 | 0.14 | 0.14 | 33 | 996.7 |
| 20260504184650 | 69 | 182 | 4.0 | 9.0 | 0.00 | 0.14 | 0.14 | 35 | 996.8 |
| 20260504183916 | 69 | 323 | 4.0 | 9.0 | 0.00 | 0.14 | 0.14 | 35 | 997.0 |
| 20260504183419 | 69 | 168 | 3.0 | 9.0 | 0.00 | 0.14 | 0.14 | 34 | 997.0 |
| 20260504182914 | 69 | 115 | 3.0 | 7.0 | 0.00 | 0.14 | 0.14 | 35 | 997.1 |
| 20260504182649 | 69 | 217 | 3.0 | 7.0 | 0.00 | 0.14 | 0.14 | 33 | 997.1 |
| 20260504181913 | 69 | 182 | 3.0 | 7.0 | 0.00 | 0.14 | 0.14 | 36 | 997.3 |
| 20260504181648 | 69 | 194 | 4.0 | 9.0 | 0.00 | 0.14 | 0.14 | 33 | 997.2 |
| 20260504180912 | 69 | 178 | 4.0 | 9.0 | 0.00 | 0.14 | 0.14 | 34 | 997.3 |
| 20260504180418 | 69 | 157 | 3.0 | 7.0 | 0.00 | 0.14 | 0.14 | 33 | 997.3 |
| 20260504175913 | 69 | 238 | 4.0 | 9.0 | 0.00 | 0.14 | 0.14 | 34 | 997.4 |
| 20260504175648 | 68 | 174 | 4.0 | 9.0 | 0.00 | 0.14 | 0.14 | 34 | 997.5 |
| 20260504174914 | 68 | 236 | 4.0 | 10.0 | 0.14 | 0.14 | 0.14 | 34 | 997.5 |
| 20260504174416 | 68 | 192 | 4.0 | 10.0 | 0.14 | 0.14 | 0.14 | 34 | 997.5 |
| 20260504173913 | 68 | 121 | 4.0 | 10.0 | 0.14 | 0.14 | 0.14 | 35 | 997.6 |
| 20260504173418 | 68 | 162 | 3.0 | 9.0 | 0.14 | 0.14 | 0.14 | 35 | 997.8 |
| 20260504173143 | 67 | 308 | 4.0 | 9.0 | 0.14 | 0.14 | 0.14 | 35 | 997.8 |
| 20260504172418 | 67 | 184 | 5.0 | 10.0 | 0.14 | 0.14 | 0.14 | 33 | 997.8 |
| 20260504171912 | 67 | 183 | 5.0 | 14.0 | 0.14 | 0.14 | 0.14 | 33 | 997.8 |
| 20260504171648 | 68 | 234 | 4.0 | 14.0 | 0.14 | 0.14 | 0.14 | 33 | 997.9 |
| 20260504170912 | 68 | 253 | 3.0 | 12.0 | 0.14 | 0.14 | 0.14 | 33 | 998.0 |
| 20260504170415 | 68 | 36 | 3.0 | 8.0 | 0.14 | 0.14 | 0.14 | 33 | 997.9 |
| 20260504170143 | 68 | 253 | 3.0 | 7.0 | 0.14 | 0.14 | 0.14 | 34 | 998.0 |
| 20260504160411 | 65 | 286 | 3.0 | 11.0 | 0.00 | 0.00 | 0.00 | 36 | 998.4 |
| 20260504150904 | 63 | 263 | 4.0 | 10.0 | 0.00 | 0.00 | 0.00 | 37 | 999.3 |
| 20260504150405 | 63 | 162 | 3.0 | 9.0 | 0.00 | 0.00 | 0.00 | 37 | 999.3 |
| 20260504140903 | 62 | 258 | 2.0 | 6.0 | 0.00 | 0.00 | 0.00 | 40 | 999.7 |
| 20260504140405 | 61 | 135 | 2.0 | 7.0 | 0.00 | 0.00 | 0.00 | 42 | 999.8 |
| 20260504130400 | 57 | 189 | 2.0 | 7.0 | 0.00 | 0.00 | 0.00 | 47 | 1000.4 |
| 20260504110340 | 47 | 173 | 1.0 | 3.0 | 0.00 | 0.00 | 0.00 | 61 | 1000.7 |
| 20260504110109 | 47 | 174 | 1.0 | 3.0 | 0.00 | 0.00 | 0.00 | 63 | 1000.7 |
| 20260504100339 | 43 | 185 | 1.0 | 2.0 | 0.00 | 0.00 | 0.00 | 69 | 1000.3 |
| 20260504081847 | 43 | 108 | 1.0 | 4.0 | 0.00 | 0.00 | 0.00 | 68 | 999.8 |